Total_Precipitation_Accumulation
2.16 2.55 2.98 3.47 4.00 4.55 5.27 5.95 6.58 6.73 6.60 6.29 6.01 5.78 5.37 5.08 4.75 4.50 4.39 4.19 3.86 3.69 4.08 3.72 4.08 3.94 3.90 3.79 3.80 4.07 4.08 3.68 3.88 4.26 3.84 3.24 2.84 2.78 2.65 2.64 2.75 2.61 2.80
2.10 2.51 3.08 3.39 3.77 4.32 4.90 5.29 5.43 5.28 5.20 5.32 5.31 5.05 5.07 4.91 4.85 4.73 4.63 4.14 3.91 3.79 3.52 3.76 3.56 3.54 3.76 3.56 3.55 3.83 3.77 3.39 3.73 4.04 4.18 3.63 3.36 2.82 2.18 2.41 2.62 2.72 3.02
1.72 2.11 2.70 3.07 3.31 3.80 4.12 4.13 4.15 4.18 4.35 4.45 4.43 4.49 4.75 4.84 4.94 4.93 4.72 4.33 4.10 3.92 3.70 3.54 3.39 3.41 3.22 3.41 3.50 3.57 3.70 3.67 3.57 3.63 4.03 3.77 3.39 2.90 2.35 2.18 2.47 2.91 3.28
1.45 1.78 2.15 2.41 2.76 3.07 3.21 3.19 3.33 3.53 3.68 3.78 3.77 3.68 3.73 4.00 4.29 4.58 4.76 4.70 4.39 4.10 3.79 3.53 3.32 3.18 2.98 3.29 2.97 3.11 3.47 3.73 3.40 3.35 3.28 3.27 3.46 3.37 2.96 2.44 2.26 2.52 2.82
1.50 1.69 1.82 2.03 2.16 2.28 2.45 2.52 2.80 3.31 3.54 3.60 3.71 3.67 3.43 3.46 3.59 3.75 3.99 4.00 4.03 3.86 3.47 3.35 3.28 3.11 2.90 2.94 2.94 3.30 3.30 3.27 3.20 3.27 3.23 3.36 3.59 3.35 3.20 2.88 2.75 2.82 2.64
1.23 1.44 1.71 1.82 1.83 1.87 2.03 2.26 2.61 3.20 3.51 3.58 3.48 3.52 3.56 3.65 3.56 3.53 3.63 3.55 3.54 3.48 3.16 3.02 3.15 3.06 2.94 2.98 2.97 3.07 3.12 3.26 3.32 3.32 3.32 3.41 3.41 3.44 3.62 3.23 3.04 3.03 2.67
1.02 1.03 1.22 1.46 1.49 1.50 1.68 1.95 2.23 2.71 3.03 3.19 3.05 3.03 3.27 3.50 3.39 3.21 3.16 3.14 2.99 2.91 2.86 2.87 3.00 2.91 2.97 3.01 3.11 3.14 3.11 3.22 3.26 3.19 3.28 3.38 3.33 3.46 3.64 3.55 3.16 2.90 2.62
0.80 0.76 0.83 1.02 1.29 1.35 1.48 1.64 1.91 2.17 2.51 2.75 2.79 2.84 3.04 3.19 3.14 3.36 3.08 2.92 2.57 2.46 2.58 2.79 2.79 2.68 2.68 2.73 3.20 3.19 3.20 3.31 3.22 3.03 3.39 3.41 3.17 3.40 3.58 3.72 3.81 3.38 3.10
0.71 0.76 0.83 1.05 1.16 1.17 1.27 1.42 1.65 1.87 2.17 2.43 2.58 2.63 2.61 2.65 2.81 2.99 2.91 2.74 2.67 2.40 2.48 2.60 2.84 2.90 2.95 3.01 3.22 3.17 3.20 3.43 3.36 3.28 3.51 3.43 3.21 3.26 3.36 3.63 3.96 4.06 3.76
0.76 0.77 0.80 0.88 0.95 1.00 1.14 1.38 1.64 1.71 1.94 2.29 2.53 2.47 2.56 2.48 2.64 2.62 2.60 2.63 2.57 2.53 2.61 2.63 2.72 2.92 3.04 3.07 3.21 3.17 3.23 3.44 3.45 3.54 3.62 3.45 3.15 3.35 3.36 3.49 3.88 4.25 4.33
0.84 0.79 0.81 0.84 0.97 0.92 1.01 1.20 1.40 1.57 1.87 2.25 2.59 2.66 2.57 2.55 2.61 2.44 2.39 2.52 2.55 2.54 2.66 2.69 2.68 2.66 2.82 3.06 3.29 3.14 3.28 3.41 3.45 3.41 3.33 3.24 3.33 3.53 3.43 3.58 3.74 4.01 4.31
0.72 0.68 0.67 0.75 0.75 0.77 0.90 1.26 1.58 1.98 2.23 2.61 2.97 3.03 2.80 2.59 2.45 2.24 2.21 2.38 2.57 2.60 2.60 2.61 2.59 2.52 2.66 2.96 3.09 3.17 3.48 3.62 3.47 3.38 3.41 3.23 3.37 3.44 3.40 3.51 3.48 3.60 3.98
0.71 0.69 0.68 0.78 0.78 0.78 0.84 0.97 1.18 1.62 2.03 2.46 2.86 2.79 2.52 2.32 2.26 2.20 2.20 2.38 2.57 2.57 2.54 2.58 2.60 2.69 2.88 3.09 3.18 3.26 3.42 3.40 3.30 3.40 3.34 3.15 3.30 3.16 3.23 3.27 3.26 3.27 3.43
0.87 0.78 0.73 0.74 0.75 0.77 0.79 0.93 1.09 1.17 1.47 2.01 2.40 2.34 2.16 2.07 2.07 2.09 2.16 2.22 2.34 2.39 2.44 2.62 2.79 2.92 3.09 3.19 3.24 3.30 3.26 3.20 3.03 2.95 2.89 2.91 3.08 3.17 3.23 3.14 3.09 3.18 3.36
0.83 0.76 0.78 0.87 0.87 0.94 0.96 0.98 1.05 1.05 1.27 1.84 2.16 2.14 2.03 2.01 1.96 1.96 2.11 2.23 2.32 2.35 2.61 2.76 2.82 2.85 2.86 2.90 3.12 3.10 2.97 2.95 2.79 2.66 2.48 2.50 2.87 3.04 3.07 2.84 2.98 3.13 3.19
0.86 0.77 0.70 0.80 0.92 1.01 1.05 1.07 1.15 1.22 1.35 1.74 2.08 2.11 2.00 1.91 1.82 1.91 2.09 2.25 2.35 2.56 2.77 2.75 2.73 2.64 2.23 2.35 2.55 2.58 2.59 2.63 2.61 2.47 2.40 2.37 2.43 2.46 2.51 2.54 2.61 2.73 2.84
0.82 0.80 0.83 0.93 1.15 1.10 1.13 1.20 1.16 1.24 1.44 1.83 2.13 2.23 2.14 2.07 2.01 1.94 2.13 2.35 2.60 2.83 2.94 2.85 2.75 2.57 2.47 2.36 2.21 2.20 2.23 2.38 2.42 2.43 2.51 2.17 1.96 2.19 2.20 2.39 2.39 2.30 2.41
0.85 0.94 0.94 1.03 1.14 1.13 1.20 1.29 1.32 1.37 1.56 1.88 2.14 2.29 2.25 2.24 2.33 2.34 2.41 2.63 2.89 3.06 3.07 3.02 2.91 2.77 2.61 2.52 2.25 2.21 2.13 2.24 2.28 2.29 2.33 2.28 2.18 2.17 2.33 2.45 2.39 2.18 2.13
0.98 1.06 1.19 1.29 1.36 1.35 1.30 1.39 1.57 1.64 1.72 1.81 2.09 2.32 2.41 2.48 2.47 2.50 2.76 2.97 3.11 3.13 3.06 3.11 3.02 2.85 2.79 2.62 2.22 2.06 1.97 2.14 2.18 2.20 2.14 2.11 2.06 2.24 2.20 2.11 2.08 2.08 2.06
1.18 1.21 1.30 1.38 1.41 1.44 1.50 1.58 1.73 1.90 2.03 2.11 2.27 2.59 2.83 3.00 3.02 3.08 3.15 3.19 3.28 3.23 3.22 3.11 3.02 2.89 2.85 2.78 2.21 1.96 1.88 2.07 2.11 2.20 2.16 2.05 1.91 2.01 1.96 1.84 1.95 1.94 1.97
1.17 1.28 1.34 1.45 1.51 1.52 1.68 2.00 2.18 2.28 2.45 2.61 2.70 2.98 3.36 3.55 3.49 3.52 3.40 3.30 3.30 3.28 3.22 3.07 2.96 2.88 2.78 2.71 2.24 2.06 2.03 2.15 2.24 2.19 2.10 2.04 1.97 1.79 1.78 1.74 1.74 1.84 1.98
1.18 1.32 1.37 1.46 1.66 1.92 2.14 2.45 2.65 2.73 2.84 3.00 3.30 3.51 3.69 3.51 3.40 3.60 3.49 3.48 3.54 3.46 3.31 3.21 3.08 3.10 2.99 2.75 2.40 2.19 2.19 2.28 2.33 2.33 2.30 2.23 2.04 1.80 1.77 1.68 1.64 1.71 1.65
1.11 1.24 1.37 1.59 1.82 2.12 2.54 2.79 2.88 3.09 3.11 3.17 3.38 3.43 3.45 3.55 3.69 3.74 3.62 3.56 3.55 3.45 3.24 3.18 3.00 2.95 3.06 3.04 2.62 2.31 2.32 2.38 2.26 2.37 2.51 2.28 2.02 1.84 1.66 1.68 1.74 1.64 1.48
1.19 1.26 1.42 1.69 2.07 2.36 2.67 2.85 2.92 2.94 2.93 2.94 2.99 3.10 3.27 3.39 3.52 3.75 3.74 3.61 3.43 3.30 3.21 3.18 3.04 2.96 3.01 2.92 2.53 2.21 2.19 2.27 2.20 2.23 2.34 2.22 2.04 1.89 1.74 1.71 1.71 1.61 1.63
1.34 1.45 1.59 1.75 2.00 2.28 2.54 2.65 2.76 2.85 3.01 3.04 2.95 2.87 2.89 3.01 3.18 3.31 3.40 3.35 3.33 3.22 3.07 2.87 2.77 2.72 2.72 2.71 2.47 2.21 2.15 2.26 2.36 2.32 2.28 2.23 2.11 1.99 1.88 1.86 1.88 1.92 1.94
1.27 1.41 1.57 1.75 1.97 2.25 2.46 2.52 2.68 2.84 2.99 3.00 2.86 2.78 2.75 2.82 2.90 2.93 2.89 2.77 2.69 2.58 2.39 2.30 2.21 2.14 2.20 2.39 2.25 2.09 2.12 2.32 2.48 2.33 2.19 2.31 2.28 2.14 2.05 2.04 2.05 2.07 2.02